Jackson, MS

6:40 PM CDT on July 24, 2016 (GMT -0500)
Hawkins

Weather History for KHKS - January, 2014

Change the Weather History Date:

Tuesday, January 28, 2014

  Actual Average (KJAN) Record (KJAN)
Temperature  
Mean Temperature 24 °F 46 °F  
Max Temperature 28 °F 57 °F 83 °F (1911)
Min Temperature 21 °F 36 °F 5 °F (1940)
Degree Days  
Heating Degree Days 40 19  
Month to date heating degree days 551  
Since 1 July heating degree days 1501  
Cooling Degree Days 0 0  
Month to date cooling degree days 0  
Year to date cooling degree days 0  
Moisture  
Dew Point 9 °F    
Average Humidity 56    
Maximum Humidity 80    
Minimum Humidity 29    
Precipitation  
Precipitation 0.01 in 0.17 in 1.56 in (2006)
Month to date precipitation 4.42  
Year to date precipitation 4.42  
Sea Level Pressure  
Sea Level Pressure 30.33 in    
Wind  
Wind Speed 9 mph (North)    
Max Wind Speed 13 mph    
Max Gust Speed 22 mph    
Visibility 7 miles    
Events Snow    
T = Trace of Precipitation, MM = Missing Value Source: NWS Daily Summary

Daily Weather History Graph

Daily Weather History Graph

Search for Another Location

Airport or City:

Trip Planner

Search our weather history database for the weather conditions in past years. The results will help you decide how hot, cold, wet, or windy it might be!

Date:

Astronomy

Jan. 28, 2014 Rise Set
Actual Time 6:57 AM CST 5:30 PM CST
Civil Twilight 6:31 AM CST 5:56 PM CST
Nautical Twilight 6:02 AM CST 6:26 PM CST
Astronomical Twilight 5:32 AM CST 6:55 PM CST
Moon 4:36 AM CST (1/28) 3:22 PM CST (1/28)
Length of Visible Light 11h 25m
Length of Day
10h 33m
Waning Crescent, 7% of the Moon is Illuminated
Jan 28
Waning Crescent
Jan 30
New
Feb 6
First Quarter
Feb 14
Full
Feb 22
Last Quarter

Hourly Weather History & Observations

Time (CST) Temp. Windchill Dew Point Humidity Pressure Visibility Wind Dir Wind Speed Gust Speed Precip Events Conditions
12:53 AM 28.9 °F 19.2 °F 1.0 °F 30% 30.22 in 10.0 mi North 11.5 mph 18.4 mph N/A   Clear
1:53 AM 28.0 °F 20.0 °F -0.0 °F 30% 30.22 in 10.0 mi NNE 8.1 mph 19.6 mph N/A   Clear
2:53 AM 28.0 °F 18.1 °F -0.9 °F 29% 30.24 in 10.0 mi North 11.5 mph 19.6 mph N/A   Overcast
3:53 AM 28.0 °F 17.5 °F -0.9 °F 29% 30.25 in 10.0 mi North 12.7 mph 18.4 mph N/A   Overcast
4:53 AM 26.1 °F 16.8 °F 1.0 °F 34% 30.26 in 9.0 mi NNE 9.2 mph 18.4 mph 0.00 in   Overcast
5:53 AM 24.1 °F 16.0 °F 12.0 °F 60% 30.29 in 6.0 mi North 6.9 mph - 0.00 in Snow Light Snow
6:09 AM 23.0 °F 13.1 °F 14.0 °F 68% 30.29 in 2.0 mi North 9.2 mph - 0.00 in Snow Light Snow
6:17 AM 21.2 °F 11.7 °F 15.8 °F 80% 30.30 in 1.5 mi North 8.1 mph - 0.00 in Snow Light Snow
6:53 AM 21.9 °F 15.7 °F 16.0 °F 78% 30.30 in 1.5 mi NE 4.6 mph - 0.00 in Snow Light Snow
7:05 AM 21.2 °F 12.6 °F 15.8 °F 80% 30.30 in 3.0 mi NE 6.9 mph - 0.00 in Snow Light Snow
7:12 AM 21.2 °F 12.6 °F 15.8 °F 80% 30.30 in 6.0 mi ENE 6.9 mph - 0.00 in Snow Light Snow
7:53 AM 24.1 °F 13.7 °F 10.9 °F 57% 30.31 in 7.0 mi North 10.4 mph - 0.01 in Snow Light Snow
8:08 AM 23.0 °F 13.1 °F 12.2 °F 63% 30.32 in 2.0 mi North 9.2 mph - 0.00 in Snow Light Snow
8:22 AM 23.0 °F 13.9 °F 12.2 °F 63% 30.33 in 5.0 mi North 8.1 mph - 0.00 in Snow Light Snow
8:30 AM 23.0 °F 15.8 °F 12.2 °F 63% 30.33 in 6.0 mi Variable 5.8 mph - 0.00 in Snow Light Snow
8:53 AM 23.0 °F 17.0 °F 12.0 °F 63% 30.33 in 4.0 mi North 4.6 mph - 0.00 in Snow Light Snow
9:02 AM 23.0 °F 14.7 °F 12.2 °F 63% 30.33 in 2.0 mi North 6.9 mph - 0.00 in Snow Light Snow
9:09 AM 23.0 °F 17.0 °F 12.2 °F 63% 30.33 in 1.0 mi NNE 4.6 mph - 0.00 in Snow Light Snow
9:34 AM 21.2 °F 11.7 °F 12.2 °F 68% 30.36 in 2.5 mi North 8.1 mph - 0.00 in Snow Light Snow
9:42 AM 23.0 °F 12.4 °F 12.2 °F 63% 30.36 in 5.0 mi NNE 10.4 mph - 0.00 in Snow Light Snow
9:53 AM 24.1 °F 18.2 °F 12.0 °F 60% 30.37 in 9.0 mi NNE 4.6 mph - 0.00 in   Overcast
10:53 AM 24.1 °F 15.2 °F 12.0 °F 60% 30.37 in 10.0 mi North 8.1 mph - N/A   Overcast
11:32 AM 21.2 °F 10.1 °F 14.0 °F 74% 30.37 in 2.0 mi North 10.4 mph 19.6 mph 0.00 in Snow Light Snow
11:39 AM 23.0 °F 13.9 °F 14.0 °F 68% 30.36 in 1.2 mi North 8.1 mph 19.6 mph 0.00 in Snow Light Snow
11:53 AM 23.0 °F 14.7 °F 15.1 °F 72% 30.35 in 2.0 mi North 6.9 mph - 0.00 in Snow Light Snow
12:04 PM 23.0 °F 15.8 °F 12.2 °F 63% 30.35 in 5.0 mi North 5.8 mph 16.1 mph 0.00 in Snow Light Snow
12:53 PM 24.1 °F 16.0 °F 10.9 °F 57% 30.32 in 10.0 mi North 6.9 mph 18.4 mph 0.00 in   Overcast
1:29 PM 24.8 °F 15.3 °F 12.2 °F 59% 30.31 in 10.0 mi North 9.2 mph 17.3 mph N/A   Overcast
1:39 PM 24.8 °F 14.6 °F 10.4 °F 54% 30.31 in 10.0 mi North 10.4 mph 17.3 mph N/A   Overcast
1:53 PM 25.0 °F 16.3 °F 10.0 °F 53% 30.31 in 10.0 mi NNW 8.1 mph 18.4 mph N/A   Overcast
2:53 PM 26.1 °F 16.2 °F 10.0 °F 51% 30.30 in 10.0 mi North 10.4 mph 19.6 mph N/A   Overcast
3:53 PM 25.0 °F 14.2 °F 12.0 °F 58% 30.31 in 10.0 mi North 11.5 mph 21.9 mph N/A   Overcast
4:53 PM 24.1 °F 13.1 °F 8.1 °F 51% 30.33 in 10.0 mi North 11.5 mph 18.4 mph N/A   Mostly Cloudy
5:53 PM 24.1 °F 16.0 °F 5.0 °F 44% 30.35 in 10.0 mi NNW 6.9 mph 17.3 mph N/A   Clear
6:53 PM 23.0 °F 17.0 °F 5.0 °F 46% 30.38 in 10.0 mi NNW 4.6 mph - N/A   Clear
7:53 PM 21.9 °F 12.5 °F 3.0 °F 44% 30.39 in 10.0 mi NNW 8.1 mph - N/A   Clear
8:53 PM 21.9 °F 15.7 °F 1.9 °F 42% 30.40 in 10.0 mi NNW 4.6 mph - N/A   Clear
9:53 PM 21.9 °F 11.7 °F 1.0 °F 40% 30.41 in 10.0 mi North 9.2 mph - N/A   Clear
10:53 PM 21.9 °F 15.7 °F 1.0 °F 40% 30.42 in 10.0 mi Variable 4.6 mph - N/A   Clear
11:53 PM 21.9 °F 14.5 °F -0.0 °F 38% 30.42 in 10.0 mi North 5.8 mph - N/A   Clear